Orbital Elements at Epoch 2459000.5 (2020-May-31.0) TDB
Reference: JPL 8 (heliocentric ecliptic J2000)
Element | Value | Uncertainty (1-sigma) | Units |
e | .3818691398904705 | 1.0429e-07 | |
a | 2.42251064385797 | 2.0988e-08 | au |
q | 1.497428587912417 | 2.4583e-07 | au |
i | 6.921120815586511 | 7.3784e-06 | deg |
node | 153.6599387765264 | 5.8894e-05 | deg |
peri | 247.7145062710702 | 6.9841e-05 | deg |
M | 190.5420587908343 | 1.8294e-05 | deg |
tp | 2459648.770699294195 (2022-Mar-10.27069929) | 7.5436e-05 | TDB |
period | 1377.199853135518 3.77 | 1.7898e-05 4.9e-08 | d yr |
n | .2613999697867928 | 3.3971e-09 | deg/d |
Q | 3.347592699803524 | 2.9003e-08 | au |
|
| | Orbit Determination Parameters
Additional Information
|